Hourly Weather Acquaviva delle Fonti

Today, 7 March, Sunday

Time Temperature Precipitation Wind Pressure Humidity
00:00 +5°C° 0 mm 4 mps 742 mmHg 77%
01:00 +5°C° 0 mm 4 mps 742 mmHg 78%
02:00 +5°C° 0 mm 4 mps 741 mmHg 77%
03:00 +5°C° 0 mm 4 mps 741 mmHg 76%
04:00 +5°C° 0 mm 3 mps 741 mmHg 74%
05:00 +5°C° 0 mm 3 mps 741 mmHg 75%
06:00 +5°C° 0 mm 3 mps 741 mmHg 76%
07:00 +5°C° 0 mm 3 mps 741 mmHg 77%
08:00 +8°C° 0 mm 3 mps 741 mmHg 73%
09:00 +9°C° 0 mm 3 mps 741 mmHg 68%
10:00 +10°C° 0 mm 2 mps 742 mmHg 64%
11:00 +12°C° 0 mm 2 mps 741 mmHg 62%
12:00 +12°C° 0 mm 2 mps 741 mmHg 61%
13:00 +13°C° 0 mm 2 mps 741 mmHg 61%
14:00 +13°C° 0 mm 2 mps 740 mmHg 62%
15:00 +12°C° 0 mm 2 mps 740 mmHg 63%
16:00 +11°C° 0 mm 3 mps 740 mmHg 65%
17:00 +10°C° 0 mm 2 mps 739 mmHg 69%
18:00 +9°C° 0 mm 2 mps 739 mmHg 73%
19:00 +9°C° 0 mm 1 mps 739 mmHg 76%
20:00 +9°C° 0 mm 1 mps 739 mmHg 77%
21:00 +9°C° 0 mm 1 mps 738 mmHg 78%
22:00 +8°C° 0 mm 0 mps 738 mmHg 78%
23:00 +8°C° 0 mm 1 mps 738 mmHg 80%

Tomorrow, 8 March, Monday

Time Temperature Precipitation Wind Pressure Humidity
00:00 +8°C° 0 mm 1 mps 738 mmHg 82%
01:00 +7°C° 0 mm 2 mps 737 mmHg 83%
02:00 +7°C° 0 mm 2 mps 737 mmHg 85%
03:00 +7°C° 0 mm 2 mps 736 mmHg 87%
04:00 +6°C° 0 mm 2 mps 736 mmHg 89%
05:00 +7°C° 0 mm 2 mps 736 mmHg 88%
06:00 +7°C° 0 mm 3 mps 736 mmHg 87%
07:00 +7°C° 0 mm 3 mps 735 mmHg 87%
08:00 +9°C° 0 mm 3 mps 736 mmHg 82%
09:00 +10°C° 0 mm 3 mps 736 mmHg 77%
10:00 +11°C° 0 mm 3 mps 736 mmHg 72%
11:00 +12°C° 0 mm 3 mps 736 mmHg 72%
12:00 +12°C° 0 mm 3 mps 736 mmHg 71%
13:00 +12°C° 0 mm 3 mps 735 mmHg 70%
14:00 +12°C° 0.1 mm 3 mps 735 mmHg 72%
15:00 +12°C° 0.1 mm 3 mps 735 mmHg 73%
16:00 +11°C° 0.1 mm 4 mps 734 mmHg 75%
17:00 +11°C° 0.2 mm 3 mps 734 mmHg 79%
18:00 +10°C° 0.2 mm 3 mps 734 mmHg 83%
19:00 +10°C° 0.2 mm 3 mps 734 mmHg 87%
20:00 +10°C° 0.2 mm 2 mps 734 mmHg 88%
21:00 +10°C° 0.2 mm 2 mps 734 mmHg 89%
22:00 +9°C° 0.2 mm 2 mps 734 mmHg 89%
23:00 +9°C° 0.1 mm 2 mps 734 mmHg 90%

Day after tomorrow, 9 March, Tuesday

Time Temperature Precipitation Wind Pressure Humidity
00:00 +9°C° 0.1 mm 2 mps 734 mmHg 90%
01:00 +9°C° 0.1 mm 2 mps 734 mmHg 91%
02:00 +9°C° 0 mm 2 mps 734 mmHg 91%
03:00 +9°C° 0 mm 2 mps 733 mmHg 91%
04:00 +9°C° 0 mm 3 mps 733 mmHg 92%
05:00 +9°C° 0 mm 3 mps 733 mmHg 92%
06:00 +9°C° 0 mm 3 mps 733 mmHg 91%
07:00 +9°C° 0 mm 3 mps 733 mmHg 91%
08:00 +10°C° 0 mm 3 mps 733 mmHg 87%
09:00 +11°C° 0 mm 3 mps 734 mmHg 83%
10:00 +12°C° 0 mm 4 mps 734 mmHg 78%
11:00 +13°C° 0 mm 4 mps 734 mmHg 73%
12:00 +14°C° 0 mm 5 mps 733 mmHg 68%
13:00 +15°C° 0 mm 5 mps 733 mmHg 63%
14:00 +14°C° 0 mm 6 mps 733 mmHg 67%
15:00 +13°C° 0 mm 6 mps 732 mmHg 71%
16:00 +13°C° 0 mm 6 mps 732 mmHg 74%
17:00 +12°C° 0.2 mm 5 mps 732 mmHg 77%
18:00 +12°C° 0.2 mm 4 mps 732 mmHg 81%
19:00 +11°C° 0.2 mm 4 mps 732 mmHg 84%
20:00 +11°C° 0.5 mm 3 mps 732 mmHg 84%
21:00 +12°C° 0.5 mm 2 mps 732 mmHg 85%
22:00 +12°C° 0.5 mm 2 mps 732 mmHg 85%
23:00 +10°C° 0.5 mm 2 mps 732 mmHg 87%

10 March, Wednesday

Time Temperature Precipitation Wind Pressure Humidity
00:00 +10°C° 0.5 mm 3 mps 732 mmHg 88%
01:00 +9°C° 0.5 mm 3 mps 732 mmHg 90%
02:00 +9°C° 1.8 mm 3 mps 732 mmHg 91%
03:00 +9°C° 1.8 mm 3 mps 732 mmHg 92%
04:00 +8°C° 1.8 mm 4 mps 732 mmHg 92%
05:00 +8°C° 0.7 mm 4 mps 732 mmHg 90%
06:00 +7°C° 0.7 mm 5 mps 732 mmHg 87%
07:00 +7°C° 0.7 mm 6 mps 733 mmHg 85%
08:00 +8°C° 0.1 mm 6 mps 733 mmHg 81%
09:00 +9°C° 0.1 mm 6 mps 734 mmHg 77%
10:00 +9°C° 0.1 mm 6 mps 734 mmHg 73%
11:00 +10°C° 0 mm 7 mps 734 mmHg 70%
12:00 +10°C° 0 mm 7 mps 735 mmHg 68%
13:00 +10°C° 0 mm 7 mps 735 mmHg 66%
14:00 +10°C° 0 mm 7 mps 735 mmHg 65%
15:00 +10°C° 0 mm 7 mps 735 mmHg 64%
16:00 +10°C° 0 mm 7 mps 735 mmHg 63%
17:00 +9°C° 0 mm 7 mps 735 mmHg 64%
18:00 +8°C° 0 mm 7 mps 736 mmHg 65%
19:00 +7°C° 0 mm 6 mps 736 mmHg 66%
20:00 +5°C° 0 mm 6 mps 737 mmHg 66%
21:00 +5°C° 0 mm 6 mps 738 mmHg 66%
22:00 +5°C° 0 mm 6 mps 738 mmHg 67%
23:00 +4°C° 0 mm 6 mps 738 mmHg 67%

11 March, Thursday

Time Temperature Precipitation Wind Pressure Humidity
00:00 +4°C° 0 mm 6 mps 739 mmHg 68%
01:00 +4°C° 0 mm 6 mps 739 mmHg 69%
02:00 +4°C° 0 mm 6 mps 739 mmHg 69%
03:00 +4°C° 0 mm 6 mps 739 mmHg 70%
04:00 +4°C° 0 mm 6 mps 739 mmHg 70%
05:00 +5°C° 0 mm 5 mps 739 mmHg 69%
06:00 +5°C° 0 mm 5 mps 740 mmHg 67%
07:00 +5°C° 0 mm 5 mps 740 mmHg 65%
08:00 +6°C° 0 mm 4 mps 741 mmHg 60%
09:00 +8°C° 0 mm 4 mps 741 mmHg 54%
10:00 +10°C° 0 mm 4 mps 742 mmHg 48%
11:00 +11°C° 0 mm 3 mps 742 mmHg 45%
12:00 +12°C° 0 mm 3 mps 742 mmHg 42%
13:00 +12°C° 0 mm 3 mps 742 mmHg 38%
14:00 +13°C° 0 mm 2 mps 742 mmHg 39%
15:00 +13°C° 0 mm 2 mps 742 mmHg 39%
16:00 +13°C° 0 mm 2 mps 741 mmHg 39%
17:00 +12°C° 0 mm 2 mps 741 mmHg 45%
18:00 +9°C° 0 mm 2 mps 742 mmHg 51%
19:00 +7°C° 0 mm 2 mps 742 mmHg 57%
20:00 +7°C° 0 mm 2 mps 742 mmHg 60%
21:00 +7°C° 0 mm 2 mps 742 mmHg 62%
22:00 +7°C° 0 mm 3 mps 742 mmHg 65%
23:00 +5°C° 0 mm 3 mps 741 mmHg 67%

12 March, Friday

Time Temperature Precipitation Wind Pressure Humidity
00:00 +5°C° 0 mm 3 mps 741 mmHg 69%
01:00 +5°C° 0 mm 4 mps 741 mmHg 70%
02:00 +5°C° 0 mm 3 mps 741 mmHg 71%
03:00 +5°C° 0 mm 3 mps 740 mmHg 71%
04:00 +5°C° 0 mm 3 mps 740 mmHg 71%
05:00 +5°C° 0 mm 3 mps 740 mmHg 69%
06:00 +6°C° 0 mm 2 mps 740 mmHg 67%
07:00 +6°C° 0 mm 2 mps 740 mmHg 65%
08:00 +8°C° 0 mm 2 mps 740 mmHg 58%
09:00 +10°C° 0 mm 2 mps 740 mmHg 52%
10:00 +12°C° 0 mm 3 mps 740 mmHg 45%
11:00 +13°C° 0 mm 3 mps 740 mmHg 44%
12:00 +14°C° 0 mm 3 mps 740 mmHg 43%
13:00 +15°C° 0 mm 4 mps 740 mmHg 43%
14:00 +14°C° 0 mm 3 mps 739 mmHg 47%
15:00 +14°C° 0 mm 3 mps 739 mmHg 52%
16:00 +13°C° 0 mm 3 mps 739 mmHg 57%
17:00 +12°C° 0 mm 3 mps 738 mmHg 62%
18:00 +10°C° 0 mm 3 mps 738 mmHg 67%
19:00 +9°C° 0 mm 3 mps 738 mmHg 71%
20:00 +8°C° 0 mm 2 mps 738 mmHg 72%
21:00 +8°C° 0 mm 2 mps 738 mmHg 73%
22:00 +8°C° 0 mm 2 mps 737 mmHg 74%
23:00 +9°C° 0 mm 1 mps 737 mmHg 76%
Show more